Kezdőlap
METAR-TAF:

METAR-TAF

Repülőterek :

Estherville Municipal Airport

Estherville, Iowa, Amerikai Egyesült Államok

földrajzi szélesség: 43-24-04N, földrajzi hosszúság: 094-44-50W, magasság: 401 m

Jelenlegi meteorológiai megfigyelések

A jelentés 24 perccel ezelõtt készült, 11:52 UTC
Észak-északnyugati szél 3 kt
Hőmérséklet -3°C
Páratartalom 93%
Légköri nyomás 1018 hPa
Látótávolság: 12.9 km
Derült ég

METAR: KEST 231152Z AUTO 33003KT 8SM CLR M03/M04 A3005 RMK AO2 SLP189 7//// I1000 I6000 T10281039 10000 21028 53003

Idő: 07:16 (12:16 UTC)


TAF: hiányzik

Meteorológiai megfigyelések és előrejelzések több, mint 4000 repülőtéren (METAR és TAF jelentéseket).

A térképen piros és sárga pontok jelzik az elérhető meteorológiai állomásokat.

Mozgassa az egeret a pont fölött, hogy megjelenjen az állomás neve.

Azután kattintson az időjárási megfigyelések és előrejelzések megtekintéséhez.

A térkép megváltoztatása: kattintson a fekete keresztel jelölt zöld gombra ráközelítéshez, a vonallal jelölt zöld gombra távolításhoz, vagy a zöld nyilakra a szomszédos térképek eléréséhez.


METAR-TAF: